Time,TemperatureF,DewpointF,PressureIn,WindDirection,WindDirectionDegrees,WindSpeedMPH,WindSpeedGustMPH,Humidity,HourlyPrecipIn,Conditions,Clouds,dailyrainin,SolarRadiationWatts/m^2,SoftwareType,DateUTC
2013-04-29 00:03:00,67.0,64.0,-100.00,ESE,108,4.0,-999.0,90,0.00,,,-99.99,0.000000,,2013-04-29 04:03:00,
2013-04-29 00:13:00,68.0,64.0,-100.00,ESE,109,5.0,-999.0,89,0.00,,,-99.99,0.000000,,2013-04-29 04:13:00,
2013-04-29 00:23:00,68.0,64.0,-100.00,ESE,109,5.0,-999.0,89,0.00,,,-99.99,0.000000,,2013-04-29 04:23:00,
2013-04-29 00:33:00,68.0,64.0,-100.00,ESE,110,4.0,-999.0,88,0.00,,,-99.99,0.000000,,2013-04-29 04:33:00,
2013-04-29 00:43:00,68.0,64.0,-100.00,East,101,3.0,-999.0,88,0.00,,,-99.99,0.000000,,2013-04-29 04:43:00,
2013-04-29 00:52:00,68.0,64.0,-100.00,East,101,3.0,-999.0,88,0.00,,,-99.99,0.000000,,2013-04-29 04:52:00,
2013-04-29 01:02:00,67.0,64.0,-100.00,East,101,5.0,-999.0,88,0.00,,,-99.99,0.000000,,2013-04-29 05:02:00,
2013-04-29 01:12:00,68.0,65.0,-100.00,East,100,6.0,-999.0,88,0.00,,,-99.99,0.000000,,2013-04-29 05:12:00,
2013-04-29 01:22:00,68.0,65.0,-100.00,East,100,6.0,-999.0,88,0.00,,,-99.99,0.000000,,2013-04-29 05:22:00,
2013-04-29 01:32:00,69.0,65.0,-100.00,East,99,4.0,-999.0,87,0.00,,,-99.99,0.000000,,2013-04-29 05:32:00,
2013-04-29 01:42:00,68.0,65.0,-100.00,East,92,3.0,-999.0,87,0.00,,,-99.99,0.000000,,2013-04-29 05:42:00,
2013-04-29 01:52:00,68.0,65.0,-100.00,East,92,3.0,-999.0,87,0.00,,,-99.99,0.000000,,2013-04-29 05:52:00,
2013-04-29 02:02:00,68.0,64.0,-100.00,ESE,111,3.0,-999.0,88,0.00,,,-99.99,0.000000,,2013-04-29 06:02:00,
2013-04-29 02:11:00,67.0,64.0,-100.00,South,175,1.0,-999.0,89,0.00,,,-99.99,0.000000,,2013-04-29 06:11:00,
2013-04-29 02:21:00,67.0,64.0,-100.00,South,175,1.0,-999.0,89,0.00,,,-99.99,0.000000,,2013-04-29 06:21:00,
2013-04-29 02:32:00,66.0,64.0,-100.00,South,169,2.0,-999.0,92,0.00,,,-99.99,0.000000,,2013-04-29 06:32:00,
2013-04-29 02:42:00,66.0,64.0,-100.00,SSE,150,2.0,-999.0,93,0.00,,,-99.99,0.000000,,2013-04-29 06:42:00,
2013-04-29 02:52:00,66.0,64.0,-100.00,SSE,150,2.0,-999.0,93,0.00,,,-99.99,0.000000,,2013-04-29 06:52:00,
2013-04-29 03:01:00,66.0,64.0,-100.00,SSE,151,2.0,-999.0,94,0.00,,,-99.99,0.000000,,2013-04-29 07:01:00,
2013-04-29 03:11:00,65.0,64.0,-100.00,SSW,195,2.0,-999.0,95,0.00,,,-99.99,0.000000,,2013-04-29 07:11:00,
2013-04-29 03:21:00,65.0,64.0,-100.00,SSW,195,2.0,-999.0,95,0.00,,,-99.99,0.000000,,2013-04-29 07:21:00,
2013-04-29 03:32:00,65.0,64.0,-100.00,SSE,154,2.0,-999.0,95,0.00,,,-99.99,0.000000,,2013-04-29 07:32:00,
2013-04-29 03:42:00,65.0,64.0,-100.00,ESE,102,3.0,-999.0,96,0.00,,,-99.99,0.000000,,2013-04-29 07:42:00,
2013-04-29 03:52:00,65.0,64.0,-100.00,ESE,102,3.0,-999.0,96,0.00,,,-99.99,0.000000,,2013-04-29 07:52:00,
2013-04-29 04:03:00,64.0,63.0,-100.00,ESE,109,3.0,-999.0,97,0.00,,,-99.99,0.000000,,2013-04-29 08:03:00,
2013-04-29 04:11:00,65.0,64.0,-100.00,SE,125,2.0,-999.0,97,0.00,,,-99.99,0.000000,,2013-04-29 08:11:00,
2013-04-29 04:21:00,65.0,64.0,-100.00,SE,125,2.0,-999.0,97,0.00,,,-99.99,0.000000,,2013-04-29 08:21:00,
2013-04-29 04:32:00,64.0,63.0,-100.00,SE,137,2.0,-999.0,97,0.00,,,-99.99,0.000000,,2013-04-29 08:32:00,
2013-04-29 04:42:00,63.0,62.0,-100.00,SE,126,2.0,-999.0,98,0.00,,,-99.99,0.000000,,2013-04-29 08:42:00,
2013-04-29 04:52:00,63.0,62.0,-100.00,SE,126,2.0,-999.0,98,0.00,,,-99.99,0.000000,,2013-04-29 08:52:00,
2013-04-29 05:01:00,62.0,62.0,-100.00,ESE,111,2.0,-999.0,98,0.00,,,-99.99,0.000000,,2013-04-29 09:01:00,
2013-04-29 05:12:00,62.0,62.0,-100.00,SE,124,2.0,-999.0,98,0.00,,,-99.99,0.000000,,2013-04-29 09:12:00,
2013-04-29 05:21:00,62.0,62.0,-100.00,SE,124,2.0,-999.0,98,0.00,,,-99.99,0.000000,,2013-04-29 09:21:00,
2013-04-29 05:33:00,63.0,63.0,-100.00,SE,133,2.0,-999.0,99,0.00,,,-99.99,0.100000,,2013-04-29 09:33:00,
2013-04-29 05:42:00,64.0,63.0,-100.00,SE,133,2.0,-999.0,99,0.00,,,-99.99,0.100000,,2013-04-29 09:42:00,
2013-04-29 05:53:00,64.0,63.0,-100.00,SE,133,2.0,-999.0,99,0.00,,,-99.99,0.100000,,2013-04-29 09:53:00,
2013-04-29 06:02:00,64.0,64.0,-100.00,ESE,121,4.0,-999.0,99,0.00,,,-99.99,0.100000,,2013-04-29 10:02:00,
2013-04-29 06:12:00,64.0,64.0,-100.00,SE,125,4.0,-999.0,99,0.00,,,-99.99,0.200000,,2013-04-29 10:12:00,
2013-04-29 06:23:00,64.0,64.0,-100.00,SE,125,4.0,-999.0,99,0.00,,,-99.99,0.200000,,2013-04-29 10:23:00,
2013-04-29 06:32:00,65.0,65.0,-100.00,SE,134,4.0,-999.0,99,0.00,,,-99.99,0.200000,,2013-04-29 10:32:00,
2013-04-29 06:42:00,65.0,65.0,-100.00,SE,139,3.0,-999.0,98,0.00,,,-99.99,0.200000,,2013-04-29 10:42:00,
2013-04-29 06:52:00,65.0,65.0,-100.00,SE,139,3.0,-999.0,98,0.00,,,-99.99,0.200000,,2013-04-29 10:52:00,
2013-04-29 07:03:00,66.0,65.0,-100.00,ESE,113,3.0,-999.0,98,0.00,,,-99.99,4.100000,,2013-04-29 11:03:00,
2013-04-29 07:12:00,66.0,65.0,-100.00,SE,127,3.0,-999.0,97,0.00,,,-99.99,16.799999,,2013-04-29 11:12:00,
2013-04-29 07:21:00,66.0,65.0,-100.00,SE,127,3.0,-999.0,97,0.00,,,-99.99,16.799999,,2013-04-29 11:21:00,
2013-04-29 07:32:00,66.0,65.0,-100.00,East,101,2.0,-999.0,96,0.00,,,-99.99,49.799999,,2013-04-29 11:32:00,
2013-04-29 07:42:00,67.0,66.0,-100.00,ESE,107,2.0,-999.0,95,0.00,,,-99.99,86.400002,,2013-04-29 11:42:00,
2013-04-29 07:52:00,67.0,66.0,-100.00,ESE,107,2.0,-999.0,95,0.00,,,-99.99,86.400002,,2013-04-29 11:52:00,
2013-04-29 08:01:00,68.0,67.0,-100.00,ESE,108,2.0,-999.0,94,0.00,,,-99.99,136.100006,,2013-04-29 12:01:00,
2013-04-29 08:12:00,70.0,68.0,-100.00,SE,145,2.0,-999.0,92,0.00,,,-99.99,232.699997,,2013-04-29 12:12:00,
2013-04-29 08:22:00,70.0,68.0,-100.00,SE,145,2.0,-999.0,92,0.00,,,-99.99,232.699997,,2013-04-29 12:22:00,
2013-04-29 08:32:00,71.0,68.0,-100.00,SE,139,5.0,-999.0,89,0.00,,,-99.99,184.300003,,2013-04-29 12:32:00,
2013-04-29 08:42:00,72.0,68.0,-100.00,SE,141,5.0,-999.0,86,0.00,,,-99.99,225.100006,,2013-04-29 12:42:00,
2013-04-29 08:52:00,72.0,68.0,-100.00,SE,141,5.0,-999.0,86,0.00,,,-99.99,225.100006,,2013-04-29 12:52:00,
2013-04-29 09:01:00,74.0,68.0,-100.00,SE,135,6.0,-999.0,83,0.00,,,-99.99,295.899994,,2013-04-29 13:01:00,
2013-04-29 09:11:00,74.0,68.0,-100.00,SE,130,6.0,-999.0,79,0.00,,,-99.99,291.299988,,2013-04-29 13:11:00,
2013-04-29 09:21:00,74.0,68.0,-100.00,SE,130,6.0,-999.0,79,0.00,,,-99.99,291.299988,,2013-04-29 13:21:00,
2013-04-29 09:32:00,76.0,68.0,-100.00,SE,131,7.0,-999.0,76,0.00,,,-99.99,406.899994,,2013-04-29 13:32:00,
2013-04-29 09:42:00,76.0,66.0,-100.00,SE,132,10.0,-999.0,72,0.00,,,-99.99,264.799988,,2013-04-29 13:42:00,
2013-04-29 09:52:00,76.0,66.0,-100.00,SE,132,10.0,-999.0,72,0.00,,,-99.99,264.799988,,2013-04-29 13:52:00,
2013-04-29 10:02:00,76.0,66.0,-100.00,SE,140,9.0,-999.0,72,0.00,,,-99.99,177.699997,,2013-04-29 14:02:00,
2013-04-29 10:12:00,77.0,67.0,-100.00,SE,142,9.0,-999.0,71,0.00,,,-99.99,482.399994,,2013-04-29 14:12:00,
2013-04-29 10:21:00,77.0,67.0,-100.00,SE,142,9.0,-999.0,71,0.00,,,-99.99,482.399994,,2013-04-29 14:21:00,
2013-04-29 10:32:00,78.0,67.0,-100.00,SE,134,9.0,-999.0,69,0.00,,,-99.99,610.400024,,2013-04-29 14:32:00,
2013-04-29 10:42:00,79.0,67.0,-100.00,SE,137,11.0,-999.0,68,0.00,,,-99.99,654.799988,,2013-04-29 14:42:00,
2013-04-29 10:52:00,79.0,67.0,-100.00,SE,137,11.0,-999.0,68,0.00,,,-99.99,654.799988,,2013-04-29 14:52:00,
2013-04-29 11:01:00,78.0,67.0,-100.00,SE,136,10.0,-999.0,67,0.00,,,-99.99,467.100006,,2013-04-29 15:01:00,
2013-04-29 11:12:00,79.0,67.0,-100.00,SE,143,12.0,-999.0,66,0.00,,,-99.99,685.000000,,2013-04-29 15:12:00,
2013-04-29 11:21:00,79.0,67.0,-100.00,SE,143,12.0,-999.0,66,0.00,,,-99.99,685.000000,,2013-04-29 15:21:00,
2013-04-29 11:33:00,80.0,67.0,-100.00,SE,133,9.0,-999.0,65,0.00,,,-99.99,627.799988,,2013-04-29 15:33:00,
2013-04-29 11:42:00,80.0,67.0,-100.00,SE,142,9.0,-999.0,64,0.00,,,-99.99,511.500000,,2013-04-29 15:42:00,
2013-04-29 11:53:00,80.0,67.0,-100.00,SE,142,9.0,-999.0,64,0.00,,,-99.99,511.500000,,2013-04-29 15:53:00,
2013-04-29 12:03:00,80.0,67.0,-100.00,SSE,159,10.0,-999.0,64,0.00,,,-99.99,473.299988,,2013-04-29 16:03:00,
2013-04-29 12:12:00,81.0,66.0,-100.00,SSE,153,10.0,-999.0,61,0.00,,,-99.99,820.000000,,2013-04-29 16:12:00,
2013-04-29 12:23:00,81.0,66.0,-100.00,SSE,153,10.0,-999.0,61,0.00,,,-99.99,820.000000,,2013-04-29 16:23:00,
2013-04-29 12:33:00,82.0,67.0,-100.00,SE,136,8.0,-999.0,60,0.00,,,-99.99,874.000000,,2013-04-29 16:33:00,
2013-04-29 12:42:00,80.0,66.0,-100.00,SE,133,8.0,-999.0,61,0.00,,,-99.99,403.100006,,2013-04-29 16:42:00,
2013-04-29 12:52:00,80.0,66.0,-100.00,SE,133,8.0,-999.0,61,0.00,,,-99.99,403.100006,,2013-04-29 16:52:00,
2013-04-29 13:02:00,81.0,67.0,-100.00,SSE,147,7.0,-999.0,62,0.00,,,-99.99,372.399994,,2013-04-29 17:02:00,
2013-04-29 13:12:00,81.0,66.0,-100.00,SSE,147,7.0,-999.0,60,0.00,,,-99.99,326.700012,,2013-04-29 17:12:00,
2013-04-29 13:22:00,81.0,66.0,-100.00,SSE,147,7.0,-999.0,60,0.00,,,-99.99,326.700012,,2013-04-29 17:22:00,
2013-04-29 13:32:00,80.0,66.0,-100.00,SE,144,9.0,-999.0,61,0.00,,,-99.99,302.000000,,2013-04-29 17:32:00,
2013-04-29 13:42:00,80.0,68.0,-100.00,ESE,116,10.0,-999.0,65,0.00,,,-99.99,553.200012,,2013-04-29 17:42:00,
2013-04-29 13:52:00,80.0,68.0,-100.00,ESE,116,10.0,-999.0,65,0.00,,,-99.99,553.200012,,2013-04-29 17:52:00,
2013-04-29 14:01:00,81.0,68.0,-100.00,ESE,109,9.0,-999.0,64,0.00,,,-99.99,447.000000,,2013-04-29 18:01:00,
2013-04-29 14:13:00,80.0,67.0,-100.00,ESE,113,9.0,-999.0,64,0.00,,,-99.99,328.799988,,2013-04-29 18:13:00,
2013-04-29 14:22:00,80.0,67.0,-100.00,ESE,113,9.0,-999.0,64,0.00,,,-99.99,328.799988,,2013-04-29 18:22:00,
2013-04-29 14:32:00,80.0,68.0,-100.00,SE,131,9.0,-999.0,65,0.00,,,-99.99,343.200012,,2013-04-29 18:32:00,
2013-04-29 14:42:00,80.0,69.0,-100.00,SE,140,12.0,-999.0,69,0.00,,,-99.99,385.100006,,2013-04-29 18:42:00,
2013-04-29 14:52:00,80.0,69.0,-100.00,SE,140,12.0,-999.0,69,0.00,,,-99.99,385.100006,,2013-04-29 18:52:00,
2013-04-29 15:01:00,80.0,69.0,-100.00,ESE,123,10.0,-999.0,69,0.00,,,-99.99,600.400024,,2013-04-29 19:01:00,
2013-04-29 15:11:00,81.0,70.0,-100.00,ESE,123,12.0,-999.0,68,0.00,,,-99.99,763.000000,,2013-04-29 19:11:00,
2013-04-29 15:21:00,81.0,70.0,-100.00,ESE,123,12.0,-999.0,68,0.00,,,-99.99,763.000000,,2013-04-29 19:21:00,
2013-04-29 15:32:00,81.0,70.0,-100.00,ESE,121,12.0,-999.0,69,0.00,,,-99.99,783.000000,,2013-04-29 19:32:00,
2013-04-29 15:42:00,81.0,70.0,-100.00,ESE,117,12.0,-999.0,69,0.00,,,-99.99,750.000000,,2013-04-29 19:42:00,
2013-04-29 15:52:00,81.0,70.0,-100.00,ESE,117,12.0,-999.0,69,0.00,,,-99.99,750.000000,,2013-04-29 19:52:00,
2013-04-29 16:02:00,81.0,70.0,-100.00,ESE,112,13.0,-999.0,68,0.00,,,-99.99,831.000000,,2013-04-29 20:02:00,
2013-04-29 16:12:00,81.0,70.0,-100.00,ESE,113,13.0,-999.0,70,0.00,,,-99.99,666.700012,,2013-04-29 20:12:00,
2013-04-29 16:21:00,81.0,70.0,-100.00,ESE,113,13.0,-999.0,70,0.00,,,-99.99,666.700012,,2013-04-29 20:21:00,
2013-04-29 16:32:00,79.0,70.0,-100.00,ESE,121,11.0,-999.0,73,0.00,,,-99.99,284.100006,,2013-04-29 20:32:00,
2013-04-29 16:42:00,80.0,70.0,-100.00,SE,125,11.0,-999.0,72,0.00,,,-99.99,570.500000,,2013-04-29 20:42:00,
2013-04-29 16:52:00,80.0,70.0,-100.00,SE,125,11.0,-999.0,72,0.00,,,-99.99,570.500000,,2013-04-29 20:52:00,
2013-04-29 17:01:00,81.0,70.0,-100.00,SE,130,13.0,-999.0,69,0.00,,,-99.99,658.799988,,2013-04-29 21:01:00,
2013-04-29 17:11:00,81.0,68.0,-100.00,SE,135,13.0,-999.0,65,0.00,,,-99.99,551.400024,,2013-04-29 21:11:00,
2013-04-29 17:21:00,81.0,68.0,-100.00,SE,135,13.0,-999.0,65,0.00,,,-99.99,551.400024,,2013-04-29 21:21:00,
2013-04-29 17:33:00,81.0,68.0,-100.00,SE,132,10.0,-999.0,63,0.00,,,-99.99,462.799988,,2013-04-29 21:33:00,
2013-04-29 17:42:00,82.0,68.0,-100.00,SE,127,11.0,-999.0,62,0.00,,,-99.99,528.599976,,2013-04-29 21:42:00,
2013-04-29 17:53:00,82.0,68.0,-100.00,SE,127,11.0,-999.0,62,0.00,,,-99.99,528.599976,,2013-04-29 21:53:00,
2013-04-29 18:02:00,81.0,68.0,-100.00,SE,131,13.0,-999.0,64,0.00,,,-99.99,426.100006,,2013-04-29 22:02:00,
2013-04-29 18:13:00,80.0,69.0,-100.00,SE,138,12.0,-999.0,67,0.00,,,-99.99,307.299988,,2013-04-29 22:13:00,
2013-04-29 18:23:00,80.0,69.0,-100.00,SE,138,12.0,-999.0,67,0.00,,,-99.99,307.299988,,2013-04-29 22:23:00,
2013-04-29 18:32:00,80.0,69.0,-100.00,SE,135,11.0,-999.0,68,0.00,,,-99.99,117.800003,,2013-04-29 22:32:00,
2013-04-29 18:42:00,79.0,69.0,-100.00,SSE,155,12.0,-999.0,71,0.00,,,-99.99,41.400002,,2013-04-29 22:42:00,
2013-04-29 18:53:00,79.0,69.0,-100.00,SSE,155,12.0,-999.0,71,0.00,,,-99.99,41.400002,,2013-04-29 22:53:00,
2013-04-29 19:02:00,77.0,68.0,-100.00,SSE,168,14.0,-999.0,73,0.00,,,-99.99,17.000000,,2013-04-29 23:02:00,
2013-04-29 19:12:00,75.0,69.0,-100.00,South,173,12.0,-999.0,79,0.00,,,-99.99,52.700001,,2013-04-29 23:12:00,
2013-04-29 19:22:00,75.0,69.0,-100.00,South,173,12.0,-999.0,79,0.00,,,-99.99,52.700001,,2013-04-29 23:22:00,
2013-04-29 19:32:00,74.0,70.0,-100.00,SSE,161,7.0,-999.0,85,0.00,,,-99.99,44.299999,,2013-04-29 23:32:00,
2013-04-29 19:42:00,74.0,70.0,-100.00,South,177,7.0,-999.0,87,0.00,,,-99.99,17.400000,,2013-04-29 23:42:00,
2013-04-29 19:52:00,74.0,70.0,-100.00,South,177,7.0,-999.0,87,0.00,,,-99.99,17.400000,,2013-04-29 23:52:00,
2013-04-29 20:01:00,73.0,69.0,-100.00,South,177,6.0,-999.0,88,0.00,,,-99.99,11.600000,,2013-04-30 00:01:00,
2013-04-29 20:11:00,72.0,69.0,-100.00,South,187,5.0,-999.0,90,0.00,,,-99.99,4.100000,,2013-04-30 00:11:00,
2013-04-29 20:21:00,72.0,69.0,-100.00,South,187,5.0,-999.0,90,0.00,,,-99.99,4.100000,,2013-04-30 00:21:00,
2013-04-29 20:32:00,72.0,69.0,-100.00,South,177,5.0,-999.0,91,0.00,,,-99.99,0.100000,,2013-04-30 00:32:00,
2013-04-29 20:42:00,72.0,69.0,-100.00,SSE,161,4.0,-999.0,92,0.00,,,-99.99,0.000000,,2013-04-30 00:42:00,
2013-04-29 20:52:00,72.0,69.0,-100.00,SSE,161,4.0,-999.0,92,0.00,,,-99.99,0.000000,,2013-04-30 00:52:00,
2013-04-29 21:02:00,71.0,69.0,-100.00,South,186,6.0,-999.0,93,0.00,,,-99.99,0.000000,,2013-04-30 01:02:00,
2013-04-29 21:11:00,71.0,69.0,-100.00,South,184,6.0,-999.0,93,0.00,,,-99.99,0.000000,,2013-04-30 01:11:00,
2013-04-29 21:22:00,71.0,69.0,-100.00,South,184,6.0,-999.0,93,0.00,,,-99.99,0.000000,,2013-04-30 01:22:00,
2013-04-29 21:32:00,72.0,70.0,-100.00,South,179,6.0,-999.0,93,0.00,,,-99.99,0.000000,,2013-04-30 01:32:00,
2013-04-29 21:41:00,72.0,69.0,-100.00,South,177,5.0,-999.0,92,0.00,,,-99.99,0.000000,,2013-04-30 01:41:00,
2013-04-29 21:52:00,72.0,69.0,-100.00,South,177,5.0,-999.0,92,0.00,,,-99.99,0.000000,,2013-04-30 01:52:00,
2013-04-29 22:01:00,71.0,69.0,-100.00,South,177,4.0,-999.0,93,0.00,,,-99.99,0.000000,,2013-04-30 02:01:00,
2013-04-29 22:11:00,71.0,69.0,-100.00,South,180,3.0,-999.0,93,0.00,,,-99.99,0.000000,,2013-04-30 02:11:00,
2013-04-29 22:21:00,71.0,69.0,-100.00,South,180,3.0,-999.0,93,0.00,,,-99.99,0.000000,,2013-04-30 02:21:00,
2013-04-29 22:31:00,71.0,69.0,-100.00,SSE,157,2.0,-999.0,93,0.00,,,-99.99,0.000000,,2013-04-30 02:31:00,
2013-04-29 22:41:00,70.0,69.0,-100.00,SSE,150,3.0,-999.0,94,0.00,,,-99.99,0.000000,,2013-04-30 02:41:00,
2013-04-29 22:51:00,70.0,69.0,-100.00,SSE,150,3.0,-999.0,94,0.00,,,-99.99,0.000000,,2013-04-30 02:51:00,
2013-04-29 23:01:00,69.0,68.0,-100.00,West,278,1.0,-999.0,95,0.00,,,-99.99,0.000000,,2013-04-30 03:01:00,
2013-04-29 23:11:00,69.0,68.0,-100.00,North,0,1.0,-999.0,96,0.00,,,-99.99,0.000000,,2013-04-30 03:11:00,
2013-04-29 23:21:00,69.0,68.0,-100.00,North,0,1.0,-999.0,96,0.00,,,-99.99,0.000000,,2013-04-30 03:21:00,
2013-04-29 23:33:00,68.0,67.0,-100.00,NE,42,0.0,-999.0,96,0.00,,,-99.99,0.000000,,2013-04-30 03:33:00,
2013-04-29 23:42:00,68.0,67.0,-100.00,South,191,0.0,-999.0,97,0.00,,,-99.99,0.000000,,2013-04-30 03:42:00,
2013-04-29 23:52:00,68.0,67.0,-100.00,South,191,0.0,-999.0,97,0.00,,,-99.99,0.000000,,2013-04-30 03:52:00,